Back to catalog

CZ-6A DEB

AlivePO
NORAD 60633·DEBRIS·🇨🇳 China

Launched Aug 6, 2024 from Taiyuan Satellite Launch Center

Loading…

Next Passes (next 24 hours)

TLE

FreshSource: Space-Track

Epoch: Sep 14, 2026, 11:07 UTC

1 60633U 24140AJ  26257.46381586  .00000234  00000-0  10823-3 0  9998
2 60633  89.0134 266.6923 0054935 257.7903 101.7130 14.16974904108645

Track CZ-6A DEB in real time with AllMySat

Download on the App Store